STARLINK-34235

Last updated on Fri Aug 08 2025 00:02:05 GMT+0000 (Coordinated Universal Time)

1 64760U 25147F 25218.84696513 .00043642 00000+0 10937-2 0 9992 2 64760 53.1606 163.8570 0002105 87.8823 272.2423 15.39648682 5852
UTC large
Height (km)
Speed (km/s)
/
Latitude / Longitude
Inclination (degrees)
Orbital Period (minutes)
Azimuth
Elevation
Range (km)
Doppler Factor

Next 0 passes for location: London (51.5072 / 0.1276)

Sorry there are no passes over London.
STARLINK-34235